Home > Time Zones > World Clock > Weather > Yemen > Aden > Past weeks

Flag for Yemen Weather past 2 weeks in Aden, Yemen

Now
82 °F

Passing clouds.


Feels Like: 83 °F
Forecast: 71 / 81 °F
Wind: 14 mph from Southeast

Location: Aden

Current Time: Dec 22, 2014 at 3:15:48 PM

Latest Report: Dec 22, 2014 at 3:00 PM


Visibility: N/A

Pressure: 29.89 "Hg

Humidity: 51%

Dew point: 63 °F

Location of AdenLocation

Historic Weather in Aden — Graph

°F

Aden temperature yesterday

Maximum temperature yesterday: 84 °F (at 1:00 PM)
Minimum temperature yesterday: 75 °F (at 1:00 AM)
Average temperature yesterday: 78 °F

Past Weeks' High & Low Weather Summary

 TemperatureHumidityPressure
High84 °F (Dec 15, 8:00 AM)79% (Dec 18, 3:00 AM)30.42 "Hg (Dec 18, 3:00 AM)
Low72 °F (Dec 22, 2:00 AM)45% (Dec 21, 1:00 PM)29.92 "Hg (Dec 21, 3:00 PM)
Average80 °F63%30.02 "Hg
* Reported Dec 14 9:00 AM — Dec 22 2:00 PM, Aden, Weather by CustomWeather, © 2014

Note: Actual official high and low records may vary slightly from our data, if they occured in-between our weather recording intervals... More about our weather records

Advertising

Aden weather history for previous 24 hours

 ConditionsComfort  
Time TempWeatherWind HumidityBarometerVisibility
2:00 PM
Dec 22
82 °FPassing clouds.13 mph51%29.92 "HgN/A
1:00 PM82 °FScattered clouds.12 mph55%29.95 "HgN/A
12:00 PM81 °FScattered clouds.10 mph54%29.98 "HgN/A
11:00 AM81 °FScattered clouds.8 mph58%30.01 "HgN/A
10:00 AM79 °FScattered clouds.2 mph61%30.01 "HgN/A
9:00 AM75 °FScattered clouds.1 mph69%30.01 "HgN/A
8:00 AM73 °FScattered clouds.2 mph69%30.01 "HgN/A
7:00 AM72 °FPassing clouds.2 mph73%29.98 "HgN/A
6:00 AM72 °FPassing clouds.2 mph73%29.95 "HgN/A
5:00 AM72 °FPassing clouds.1 mph73%29.95 "HgN/A
4:00 AM72 °FPassing clouds.6 mph73%29.95 "HgN/A
3:00 AM72 °FPassing clouds.6 mph73%29.95 "HgN/A
2:00 AM72 °FPassing clouds.5 mph73%29.95 "HgN/A
1:00 AM73 °FPassing clouds.5 mph65%29.98 "HgN/A
12:00 AM73 °FPassing clouds.5 mph65%30.01 "HgN/A
11:00 PM
Dec 21
75 °FPassing clouds.6 mph61%30.01 "HgN/A
10:00 PM75 °FClear.5 mph57%30.01 "Hg10 mi
9:00 PM77 °FClear.5 mph57%30.01 "Hg10 mi
8:00 PM79 °FPassing clouds.7 mph54%29.98 "HgN/A
4:00 PM81 °FPassing clouds.12 mph48%29.92 "HgN/A
3:00 PM82 °FPassing clouds.16 mph51%29.92 "HgN/A
Weather by CustomWeather, © 2014

See weather overviewHow to use our weather pages